Theta_e
307 308 309 310 311 313 314 315 315 315 314 314 313 310 308 306 305 305 304 305 304 304 304 304 303 303 302 303 303 304 307 308 308 307 309 304 306 304 303 304 303 304 304 304 304
307 308 309 310 311 311 312 313 313 313 314 313 313 311 310 307 306 306 306 304 304 303 303 304 303 303 304 304 304 306 307 308 306 306 307 305 305 305 305 305 305 304 304 304 303
306 307 308 309 310 311 312 312 312 312 312 313 312 312 310 307 307 307 304 304 304 303 303 303 304 304 305 304 304 305 307 306 305 304 303 305 304 304 305 307 306 307 305 304 303
307 307 307 308 309 310 311 312 312 313 312 312 312 311 310 308 312 306 305 304 303 303 303 303 303 306 307 307 304 305 304 304 304 303 303 304 303 304 304 308 305 305 304 304 303
311 311 310 309 309 309 310 312 313 313 314 313 311 309 308 306 305 305 304 303 303 303 303 303 304 305 307 306 305 305 305 303 303 302 302 302 304 304 303 305 303 304 303 303 303
315 315 315 314 312 311 311 310 312 314 313 312 310 308 306 308 305 304 304 303 303 302 302 302 303 303 304 304 305 304 303 304 304 304 303 303 304 301 305 304 303 302 302 302 302
314 314 314 314 315 315 314 313 312 312 313 311 309 307 306 305 305 304 303 303 302 302 302 302 302 302 302 303 302 303 304 305 304 303 303 302 304 304 304 302 303 302 302 301 302
314 313 312 313 313 313 313 312 313 312 311 310 308 305 304 303 303 302 302 301 301 302 302 301 301 301 302 301 302 304 304 309 304 303 302 302 308 306 302 302 303 303 303 302 302
314 314 312 311 310 310 310 311 313 312 310 309 306 305 304 303 302 301 302 301 301 301 301 301 301 302 302 304 307 304 312 306 306 303 303 303 307 307 302 302 304 304 303 302 302
313 312 312 311 311 310 312 313 313 310 309 306 305 306 304 302 302 302 303 301 301 301 301 302 302 304 304 306 316 312 307 306 305 304 303 305 305 306 305 305 304 304 304 302 301
312 312 311 311 310 310 312 313 309 309 308 306 306 305 304 303 304 301 301 300 300 301 304 303 305 308 308 305 304 304 304 305 306 304 302 305 305 305 305 305 304 303 302 301 300
310 311 311 310 310 309 312 312 312 311 311 308 306 305 304 302 301 300 300 300 301 303 302 304 306 303 302 302 303 304 304 306 305 302 302 304 305 305 305 304 301 300 299 298 297
307 306 306 308 308 308 311 312 312 312 311 306 302 301 300 300 299 300 300 300 302 302 303 304 304 301 302 303 304 304 305 305 304 303 301 301 307 306 303 300 299 298 297 296 297
306 299 297 298 302 308 311 311 311 310 312 307 300 299 298 299 300 299 300 300 302 303 302 303 301 302 303 303 303 306 301 302 302 304 307 302 312 310 307 303 301 300 298 297 295
306 303 298 299 308 310 310 311 310 308 312 302 299 298 298 299 299 299 299 299 302 302 302 306 302 303 303 303 301 305 300 301 301 303 302 304 307 310 302 303 302 300 297 296 296
300 299 302 306 310 309 310 310 309 313 310 302 298 300 302 299 299 299 299 299 299 300 300 301 299 300 301 299 300 299 301 301 300 303 308 303 305 311 306 304 301 299 296 295 295
298 302 306 307 308 309 309 309 313 311 304 304 301 302 303 302 302 302 303 304 306 310 309 305 303 300 300 301 300 302 304 313 313 310 313 299 302 308 304 300 299 298 297 295 294
299 303 305 306 308 309 308 308 307 302 304 304 302 303 307 303 303 303 305 307 303 304 307 308 311 301 299 301 304 303 305 311 314 312 306 298 305 307 300 296 294 294 295 295 293
300 303 305 306 307 308 307 311 309 302 304 307 305 307 306 304 304 304 305 305 303 303 308 307 307 298 299 299 300 302 304 300 305 296 303 308 304 301 299 299 296 296 295 295 292
301 303 304 306 306 307 306 308 302 300 304 304 307 304 308 306 305 304 303 302 301 301 300 302 307 300 298 298 297 301 299 304 303 308 309 309 306 309 304 304 300 299 296 294 292
301 301 302 304 305 305 308 304 299 302 303 305 303 304 304 305 304 304 303 302 300 300 299 301 302 302 299 300 302 300 302 301 301 300 309 309 309 306 303 298 297 296 294 293 292
300 302 301 303 304 302 302 299 300 300 301 301 303 304 304 302 303 303 303 302 300 300 301 300 301 303 302 296 297 300 302 302 306 304 299 299 306 295 293 291 289 293 294 293 293
301 300 301 303 304 302 300 301 301 300 300 302 303 302 299 301 303 301 302 299 299 299 301 300 302 305 302 299 297 299 299 298 296 297 301 305 308 292 289 296 298 294 294 293 293
300 301 300 301 301 300 300 300 300 300 301 301 302 300 299 300 298 301 301 299 297 297 299 299 300 302 308 305 302 301 299 297 299 301 301 301 303 302 299 299 298 295 292 292 293
300 299 297 300 301 301 300 300 301 299 299 301 302 302 301 300 298 300 301 299 298 298 299 298 299 295 297 298 298 300 300 298 298 300 302 299 294 298 298 298 292 292 291 292 293
299 298 295 295 296 301 301 301 301 298 299 299 300 301 300 299 301 298 300 300 300 297 298 297 299 294 296 294 295 298 299 299 298 299 295 296 297 294 291 292 294 293 291 291 293
297 298 297 296 296 300 301 300 300 299 299 300 300 299 300 300 298 297 297 297 298 298 298 298 298 297 300 293 295 300 297 296 295 290 296 298 299 292 294 294 294 292 292 293 294
Wind_Speed
1 1 2 2 3 3 4 5 6 5 5 6 7 7 6 6 6 6 4 2 2 5 3 1 3 5 6 5 5 5 5 8 7 5 1 3 6 3 3 5 6 8 5 7 7
3 3 3 3 4 4 5 6 6 7 7 8 7 7 6 6 6 5 3 1 3 4 2 1 4 6 3 4 4 6 4 5 3 3 3 2 6 4 5 8 10 10 16 13 11
4 4 5 5 5 5 6 6 7 8 8 8 7 7 6 6 4 1 3 1 3 3 2 1 4 5 4 4 5 3 5 1 3 7 5 4 5 5 6 12 15 16 15 17 15
5 5 6 6 6 7 7 7 7 8 8 8 7 6 5 4 3 3 1 4 3 3 2 1 4 4 4 5 4 5 6 6 4 2 2 4 4 5 14 14 4 11 11 14 17
6 7 7 7 7 8 8 8 8 8 8 8 7 5 3 1 3 4 2 3 4 3 2 3 4 4 3 3 3 7 4 4 7 8 10 9 13 11 19 21 18 19 17 16 16
8 9 8 9 8 8 8 8 9 9 9 9 7 5 2 2 4 3 2 3 4 3 2 2 3 4 2 3 4 1 7 11 11 13 10 8 8 4 16 14 19 22 22 19 19
10 11 10 9 8 9 9 9 9 9 9 9 7 5 3 3 5 3 3 2 2 1 1 2 2 3 2 1 2 4 8 10 11 5 6 3 8 16 22 15 9 9 12 15 20
12 12 12 8 9 11 11 10 9 9 8 8 7 4 2 4 3 2 1 1 1 1 1 2 2 2 1 1 2 4 3 5 3 3 1 3 11 4 4 8 13 15 15 14 15
15 14 11 8 9 11 10 9 9 9 8 6 5 2 2 4 3 3 2 0 2 2 1 2 2 1 1 3 5 4 8 6 5 2 1 7 8 2 2 4 9 10 11 12 15
16 12 10 9 8 9 8 8 8 8 6 4 4 3 4 4 4 2 2 2 1 1 1 1 1 2 2 5 5 5 7 6 7 1 4 10 19 20 29 22 26 23 20 18 15
14 12 11 10 9 8 7 6 3 3 3 4 4 2 4 4 2 2 2 1 1 2 3 1 4 6 4 6 5 6 9 14 14 7 6 17 19 19 28 22 24 22 18 16 13
13 14 14 13 12 9 7 5 5 2 2 4 4 5 5 5 3 2 2 3 2 2 2 3 6 2 2 3 6 8 10 14 10 2 4 12 21 24 22 17 11 6 2 4 3
10 14 16 15 14 11 8 7 5 2 1 1 3 3 3 5 4 3 3 4 2 3 4 4 2 3 3 4 5 7 8 9 8 8 5 10 11 5 1 0 2 2 3 4 4
10 12 12 11 11 12 10 8 4 2 1 4 3 2 3 5 3 3 2 2 2 2 3 4 1 1 2 3 3 4 3 5 6 4 5 4 8 9 4 2 2 2 3 4 4
15 15 14 12 6 12 7 8 3 2 3 4 3 5 4 1 5 2 2 1 3 4 3 1 1 1 1 2 1 2 2 3 2 4 5 4 5 4 0 6 7 7 6 4 3
13 11 5 9 11 9 9 7 4 1 6 4 4 4 4 2 2 2 1 2 2 2 1 3 0 1 1 1 1 1 4 5 1 2 4 1 4 3 3 2 5 4 4 5 5
10 6 8 9 9 10 9 8 2 4 2 5 3 4 3 2 3 1 1 2 2 3 1 2 1 2 2 3 1 1 4 3 3 3 2 1 4 6 2 1 1 3 6 8 10
10 7 10 10 7 11 11 2 5 1 3 2 3 5 3 3 2 1 3 4 2 2 2 1 3 2 2 1 1 0 2 3 5 3 3 3 5 2 1 2 5 6 8 13 10
10 9 10 11 11 12 6 2 4 4 5 8 4 4 3 2 2 3 2 1 2 2 2 3 3 2 2 1 1 3 3 2 3 1 3 3 4 1 2 2 2 3 10 14 12
9 9 10 11 13 10 2 3 2 2 4 2 4 1 5 5 4 1 1 2 3 3 4 3 3 1 2 1 2 2 3 2 2 3 3 3 4 3 3 2 2 6 15 14 13
9 5 11 13 12 6 3 4 3 1 1 3 4 4 2 4 3 3 2 3 2 4 2 4 1 2 1 5 4 3 3 3 2 2 3 4 1 2 3 1 6 13 15 16 15
8 2 12 16 5 2 3 5 5 3 1 1 1 4 5 4 3 5 5 2 4 4 3 2 2 4 1 1 2 2 3 5 4 4 1 2 5 2 1 3 9 17 17 17 16
5 4 12 18 5 4 2 1 4 6 5 5 3 2 1 5 4 4 5 3 5 3 4 5 3 3 3 2 1 4 4 2 3 1 6 3 3 2 2 9 13 15 24 24 18
5 3 4 12 3 6 6 5 6 3 3 3 4 4 3 3 3 6 5 3 5 3 5 3 3 5 5 1 3 4 5 7 6 3 3 7 9 8 13 19 21 27 29 23 19
7 3 5 4 4 5 5 7 7 6 3 5 3 5 6 6 4 4 4 5 5 4 3 3 4 2 8 12 9 11 11 11 12 9 8 1 6 13 17 13 17 27 25 22 16
6 4 4 2 2 9 9 7 9 4 8 5 4 8 7 5 3 6 7 4 4 5 5 3 2 0 4 4 5 5 10 13 15 12 9 10 17 2 13 20 16 22 22 24 20
11 7 3 2 3 5 10 8 9 10 8 5 10 6 7 10 4 4 5 3 5 7 9 6 2 0 3 2 6 4 3 4 2 2 4 6 3 7 12 14 17 19 19 24 23
Wind_Direction
282 308 317 323 323 329 328 330 327 327 326 327 329 329 327 319 308 295 270 247 348 350 355 46 130 148 155 168 163 168 237 248 251 210 269 167 214 202 239 233 208 207 213 201 185
285 297 303 311 314 320 324 325 323 320 317 317 321 323 322 317 307 285 240 152 8 355 352 165 161 158 141 159 173 215 236 244 259 232 255 226 230 209 217 216 231 229 230 225 216
271 279 288 295 303 310 317 324 322 320 315 312 313 314 315 318 310 238 142 33 351 348 335 193 172 164 175 165 191 200 249 282 262 258 264 260 247 221 228 240 228 225 224 229 224
271 277 283 291 298 306 313 321 324 324 320 314 309 307 306 313 297 184 259 318 324 325 309 198 170 164 191 201 187 243 251 252 286 281 247 248 274 249 230 246 192 215 222 227 229
270 278 285 290 297 305 313 315 322 325 325 319 310 300 288 183 225 244 283 307 311 307 268 211 187 174 222 203 199 235 263 249 260 265 253 261 254 265 260 258 254 258 249 240 238
267 271 275 285 296 302 306 311 315 320 323 321 313 306 278 213 208 223 276 306 302 290 268 204 195 200 190 231 230 258 275 273 273 259 241 242 262 227 258 256 250 244 245 244 248
281 279 274 276 286 294 302 304 309 312 314 314 312 311 276 207 207 238 284 296 297 269 201 172 187 191 172 219 292 297 298 290 249 252 239 228 249 237 260 259 252 247 245 240 241
276 281 287 277 284 288 292 296 302 304 303 303 300 296 206 176 200 222 230 168 133 119 158 175 184 196 200 250 250 269 252 278 97 173 110 219 268 254 302 242 252 248 247 242 239
270 281 287 292 292 294 293 288 296 297 292 286 280 223 177 171 173 157 132 250 281 260 220 213 195 166 138 242 267 217 276 252 295 202 226 224 286 305 280 226 263 248 239 240 247
265 272 278 290 301 309 297 289 292 288 278 274 242 176 189 180 173 211 280 265 227 222 249 176 131 215 178 204 265 288 275 258 270 39 242 264 265 278 281 273 267 268 262 253 255
255 261 269 279 291 301 291 288 280 260 229 207 174 178 172 208 212 242 231 180 191 149 242 45 241 236 283 251 299 293 276 276 277 275 288 272 282 282 280 274 269 275 267 260 258
252 263 268 274 277 281 271 242 240 211 235 253 233 218 205 198 164 149 180 146 161 161 176 210 244 51 293 242 243 249 272 278 283 202 254 289 287 279 277 283 273 286 165 137 166
276 276 271 268 262 255 245 234 228 260 241 253 182 176 179 179 163 138 135 134 144 169 208 241 86 316 257 258 252 255 252 281 286 314 256 300 271 277 153 242 153 155 116 98 126
301 311 299 261 242 227 215 212 222 225 251 164 190 175 155 153 99 125 139 157 143 216 202 255 44 270 260 265 234 273 1 290 285 310 292 345 295 279 302 323 145 132 133 97 83
301 305 304 206 213 183 194 188 182 149 278 119 151 150 143 116 132 77 123 92 197 169 202 80 195 65 297 334 244 305 316 279 267 271 311 194 245 267 43 96 90 77 77 67 37
270 291 241 195 191 188 178 166 140 101 243 145 137 162 135 79 64 102 110 111 126 157 219 277 5 353 13 27 307 296 278 237 139 242 250 10 263 301 34 79 106 77 63 32 2
252 248 200 190 210 191 171 150 134 210 38 174 158 166 118 120 103 25 155 149 236 215 57 333 101 92 359 232 141 293 284 289 245 200 284 147 242 295 333 201 267 340 338 325 332
213 206 198 193 190 181 161 118 217 14 197 127 124 116 166 142 112 144 197 186 140 57 106 276 207 176 28 28 12 92 300 285 286 289 325 158 239 167 135 251 276 289 337 340 331
189 191 197 193 183 178 170 182 226 187 145 159 117 155 153 174 173 204 199 118 93 175 228 198 239 128 65 75 297 132 205 27 281 92 269 256 257 259 48 70 50 316 339 339 339
181 189 194 186 175 168 125 260 245 224 126 107 190 233 164 176 175 114 18 94 148 209 247 174 284 95 110 151 77 277 134 201 197 270 265 254 262 195 176 149 314 330 334 337 342
183 190 189 181 163 166 208 223 220 197 174 147 158 140 160 183 148 135 191 138 197 153 203 157 247 134 163 200 171 162 210 213 303 234 280 309 19 213 131 55 332 320 337 339 336
183 232 181 175 162 190 176 182 164 173 128 105 113 140 168 156 155 198 201 245 147 164 178 154 163 257 242 12 298 260 243 203 239 172 195 330 275 59 96 273 297 318 337 343 340
199 177 180 179 194 171 134 124 167 161 196 174 157 93 62 167 202 195 182 127 132 167 179 175 203 288 186 187 189 229 194 201 91 99 212 218 248 147 203 314 337 312 322 325 333
174 178 171 211 217 148 162 190 181 205 178 146 112 109 125 183 251 173 180 152 162 194 191 194 220 239 257 23 103 209 201 207 207 207 182 238 293 295 340 334 329 329 329 326 320
193 204 182 200 205 209 192 168 160 167 207 181 166 200 157 203 202 173 146 141 174 203 216 198 248 216 265 267 258 255 252 204 211 220 233 278 263 310 307 314 312 328 339 343 337
182 173 182 183 199 207 210 203 186 145 165 206 208 194 169 203 246 186 157 186 195 172 188 194 260 179 276 309 220 250 247 243 225 232 252 292 294 340 306 316 317 329 351 0 358
205 191 175 158 162 178 215 189 191 150 196 226 196 155 204 220 174 99 129 77 166 173 194 181 236 313 266 312 293 254 239 189 189 260 213 231 274 323 319 322 318 319 353 355 354